Location: Chena
(64.8152°N, 147.9227°W)
Time: 08:21:27
(UTC+00:00)

N. Korean satellite - Pass Details

Date: 24 January 2021
Orbit: 451 x 502 km, 97.2° (Epoch: 08 March)

Event Time Altitude Azimuth Distance (km) Brightness Sun altitude
Rises 16:03:49 0° 17° (NNE) 2,550 10.3 -17.2°
Reaches altitude 10° 16:05:54 10° 16° (NNE) 1,657 9.3 -17.0°
Maximum altitude 16:09:27 79° 290° (WNW) 486 6.3 -16.6°
Drops below altitude 10° 16:12:55 10° 204° (SSW) 1,618 9.1 -16.2°
Sets 16:14:56 0° 203° (SSW) 2,482 10.0 -16.0°
